カタログに戻る

CHINASAT-9C

運用中通信GEO
NORAD 64470·PAYLOAD·🇨🇳 China

打ち上げ Jun 20, 2025 から Xichang Satellite Launch Center

Loading…

TLE

最新Source: Space-Track

元期: Sep 14, 2026, 14:14 UTC

1 64470U 25132A   26257.59338775 -.00000255  00000-0  00000-0 0  9996
2 64470   0.0090 168.9000 0002952 358.3327 132.1699  1.00272887  5040

AllMySatでCHINASAT-9Cをリアルタイム追跡

Download on the App Store